Tracking 19484 objects as of 20-Jan-2019
HD Live streaming from Space Station
objects crossing your sky now

CHINASAT 20

Track CHINASAT 20 now!
CHINASAT 20 is classified as:


NORAD ID: 28082
Int'l Code: 2003-052A
Perigee: 36,113.9 km
Apogee: 36,130.0 km
Inclination: 4.7 °
Period: 1,452.9 minutes
Semi major axis: 42492 km
RCS: 12.5893 m2 (large)
Launch date: November 14, 2003
Source: People's Republic of China (PRC)
Launch site: Xichang Space Center, China (XSC)

Dedicated military communications satellite.
aabbcc
Your satellite tracking list
Your tracking list is empty




NASA's NSSDC Master Catalog

Two Line Element Set (TLE):
1 28082U 03052A   19019.32545796 -.00000069 +00000-0 +00000-0 0  9997
2 28082 004.6564 068.7066 0001885 259.2248 100.6940 00.99112349055574
Source of the keplerian elements: AFSPC